Content
SEND FEEDBACK

Daily
Averages
Monthly
Summary
Canada

QUEBEC CITY, QUEBEC


Home > North America > Canada > Quebec
Elevation: 239 feet     Latitude: 46 48N     Longitude: 071 23W

WEATHER
 
SELECT A DAY
Number of Records: 195,930;   Date Range: 6/30/96 - 10/24/14
 
SHARE

PRINT THIS DATA

[ ← Previous Day ]
WEATHER ALMANAC - FEBRUARY 4, 2013
[ Next Day → ]
[ °C ]   °F
Weather ElementAverageHighLow
Temperature12.3 °F19.4 °F (12:00 pm)-0.4 °F (11:00 pm)
Dewpoint3 °F12.2 °F (5:00 pm)-16.6 °F (11:00 pm)
Humidity67.7 %88 % (7:00 am)42 % (10:00 pm)
Wind Speed13.8 mph27.6 mph (5:12 pm)
Wind Gust32.2 mph (6:00 pm)
Weather ElementAverage
Visibility12.8 mi
Wind DirectionNNW (328.1 °)

Weather ElementTotal
Precipitation---
Heating Degree Days55.5 (Base 65)
Averaged from 39 records on February 4, 2013
WEATHER CONDITIONS BREAKOUT
WIND DIRECTION BREAKOUT
WEATHER BY HOUR - FEBRUARY 4, 2013
[ °C ]   °F
Local TimeTemperatureDewpointHumidityBarometerVisibilityWind DirectionWind SpeedGust SpeedPrecipitationEventsConditions
1:00 AM13.0 °F9.0 °F76 %29.76 inNE (50°)2.3 mph
1:00 AM14.0 °F6.8 °F73 %29.76 in15.0 miENE (60°)4.6 mphMostly Cloudy
2:00 AM12.2 °F5.0 °F73 %29.75 in15.0 miNorth (10°)3.5 mphMostly Cloudy
3:00 AM12.2 °F5.0 °F73 %29.74 in15.0 miNorth (360°)2.3 mphOvercast
4:00 AM10.0 °F6.0 °F77 %29.73 inNNW (340°)1.2 mph
4:00 AM10.4 °F5.0 °F79 %29.73 in15.0 miCalmOvercast
6:00 AM10.4 °F5.0 °F79 %29.71 in8.0 miWest (270°)2.3 mphSnowLight Snow
7:00 AM10.0 °F8.0 °F88 %29.71 inNW (310°)1.2 mph
7:00 AM10.4 °F5.0 °F79 %29.71 in10.0 miWest (280°)2.3 mphSnowLight Snow
7:39 AM8.6 °F0.0 °F10.0 miWSW (240°)3.5 mphScattered Clouds
8:00 AM8.6 °F5.0 °F85 %29.70 in10.0 miWest (270°)2.3 mphMostly Cloudy
9:00 AM14.0 °F6.8 °F73 %29.69 in12.0 miWSW (240°)9.2 mphScattered Clouds
10:00 AM16.0 °F7.0 °F54 %29.66 inWSW (250°)5.8 mph
10:00 AM15.8 °F6.8 °F68 %29.67 in15.0 miSW (220°)12.7 mphPartly Cloudy
11:00 AM17.6 °F6.8 °F63 %29.65 in25.0 miWSW (240°)15.0 mphPartly Cloudy
12:00 PM19.4 °F6.8 °F58 %29.62 in25.0 miSW (230°)18.4 mphScattered Clouds
1:00 PM19.0 °F8.0 °F49 %29.60 inWSW (240°)11.5 mph
1:00 PM19.4 °F8.6 °F63 %29.60 in25.0 miSW (230°)21.9 mphMostly Cloudy
2:00 PM19.4 °F6.8 °F58 %29.60 in20.0 miWSW (240°)18.4 mphMostly Cloudy
3:00 PM17.6 °F6.8 °F63 %29.61 in25.0 miSW (230°)19.6 mphMostly Cloudy
4:00 PM16.0 °F11.0 °F74 %29.61 inWSW (240°)11.5 mph
4:00 PM15.8 °F8.6 °F73 %29.61 in10.0 miWSW (240°)23.0 mphSnowLight Snow Showers
4:31 PM15.8 °F0.0 °F1.0 miSW (220°)19.6 mph25.3 mphSnowLight Snow Showers
4:48 PM15.8 °F0.0 °F0.0 mi13.8 (2013°)19.6 mph0.00 inLight Snow250
5:00 PM15.8 °F12.2 °F86 %29.61 in3.0 miWSW (250°)18.4 mphSnowLight Snow Showers
5:06 PM15.8 °F0.0 °F1.5 miWSW (250°)17.3 mph23.0 mphSnowLight Snow Showers
5:12 PM15.8 °F0.0 °F0.0 mi19.6 (2013°)27.6 mph0.00 inSnow Showers260
5:19 PM14.0 °F0.0 °F5.0 miWest (270°)21.9 mph29.9 mphSnowLight Snow Showers
5:41 PM14.0 °F0.0 °F12.0 miWest (270°)23.0 mph28.8 mphMostly Cloudy
6:00 PM12.2 °F6.8 °F79 %29.65 in15.0 miWest (270°)23.0 mph32.2 mphMostly Cloudy
7:00 PM10.0 °F3.0 °F60 %29.69 inWest (280°)16.1 mph
7:00 PM10.4 °F1.4 °F67 %29.69 in15.0 miWest (270°)18.4 mph24.2 mphMostly Cloudy
7:12 PM8.6 °F0.0 °F15.0 miWest (270°)21.9 mphSnowLight Snow Showers
7:40 PM6.8 °F0.0 °F15.0 miWest (280°)20.7 mph29.9 mphPartly Cloudy
8:00 PM6.8 °F-0.4 °F72 %29.74 in15.0 miWest (270°)25.3 mph31.1 mphPartly Cloudy
9:00 PM3.2 °F-11.2 °F51 %29.78 in15.0 miWest (270°)19.6 mph25.3 mphPartly Cloudy
10:00 PM2.0 °F-10.0 °F42 %29.81 inWest (270°)17.3 mph
10:00 PM1.4 °F-13.0 °F51 %29.81 in15.0 miWest (270°)21.9 mph27.6 mphPartly Cloudy
11:00 PM-0.4 °F-16.6 °F46 %29.83 in15.0 miWest (270°)13.8 mph25.3 mphClear
Hourly data recorded from CYQB, located miles away from Quebec City, Quebec







STORIES FROM OUR PARTNERS